RYR771 EGCC-EKCH

Flight info

Callsign RYR771
Flight time N/A
Altitude 35000
Route DESIG1S DESIG L603 LAMIX UT29 LIBSO UL975 ERDOW DCT ROPAL DCT LESRA DCT TESPI TESPI4A
Aircraft B738/M-SDE2E3FGHIRWXY/LB1

Departure

Time N/A
Airport Manchester Airport (EGCC)

Arrival

Time 2026-04-30 18:38
Airport Copenhagen Kastrup Airport (EKCH)
Time Latitude Longitude Altitude Speed Heading
2026-04-30 17:39 54.72520 2.84688 35371 ft 451 kts 58°
2026-04-30 17:42 54.89759 3.29951 35386 ft 449 kts 58°
2026-04-30 17:43 54.98297 3.52679 35393 ft 449 kts 58°
2026-04-30 17:44 55.08473 3.80047 35408 ft 450 kts 57°
2026-04-30 17:46 55.16150 4.03779 35416 ft 450 kts 68°
2026-04-30 17:47 55.19873 4.24609 35423 ft 450 kts 79°
2026-04-30 17:48 55.23829 4.62372 35426 ft 451 kts 79°
2026-04-30 17:50 55.28983 5.05386 35430 ft 451 kts 79°
2026-04-30 17:52 55.32223 5.37960 35436 ft 452 kts 79°
2026-04-30 17:54 55.36872 5.85227 35448 ft 456 kts 79°
2026-04-30 17:56 55.41039 6.29400 35452 ft 458 kts 80°
2026-04-30 17:58 55.44048 6.62465 35458 ft 456 kts 80°
2026-04-30 18:00 55.47910 7.06490 35457 ft 454 kts 80°
2026-04-30 18:01 55.50240 7.34013 35458 ft 454 kts 80°
2026-04-30 18:02 55.52959 7.67128 35467 ft 455 kts 80°
2026-04-30 18:03 55.54277 7.83616 35013 ft 444 kts 80°
2026-04-30 18:04 55.55559 7.99907 32495 ft 456 kts 81°
2026-04-30 18:05 55.57295 8.22452 28903 ft 466 kts 81°
2026-04-30 18:06 55.58978 8.44884 28469 ft 470 kts 81°
2026-04-30 18:07 55.60648 8.67722 28438 ft 458 kts 81°
2026-04-30 18:08 55.61839 8.84398 28465 ft 456 kts 81°
2026-04-30 18:10 55.64902 9.28847 27562 ft 440 kts 81°
2026-04-30 18:11 55.66316 9.50203 25010 ft 429 kts 81°
2026-04-30 18:11 55.67319 9.65715 23257 ft 417 kts 81°
2026-04-30 18:12 55.68276 9.80823 21465 ft 406 kts 82°
2026-04-30 18:13 55.68892 9.90691 20333 ft 399 kts 82°
2026-04-30 18:13 55.69682 10.03569 18908 ft 391 kts 82°
2026-04-30 18:14 55.70352 10.14656 17607 ft 382 kts 82°
2026-04-30 18:15 55.71170 10.28424 16051 ft 371 kts 83°
2026-04-30 18:15 55.71954 10.41892 14567 ft 360 kts 83°
2026-04-30 18:16 55.72408 10.50671 13602 ft 355 kts 89°
2026-04-30 18:16 55.71616 10.59422 13441 ft 359 kts 101°
2026-04-30 18:17 55.71053 10.63714 13436 ft 357 kts 101°
2026-04-30 18:17 55.70487 10.68002 13434 ft 358 kts 101°
2026-04-30 18:17 55.69362 10.76607 13429 ft 358 kts 101°
2026-04-30 18:18 55.68804 10.80909 13432 ft 358 kts 101°
2026-04-30 18:18 55.68249 10.85200 13432 ft 357 kts 101°
2026-04-30 18:18 55.67696 10.89485 13431 ft 357 kts 101°
2026-04-30 18:18 55.67140 10.93781 13433 ft 357 kts 101°
2026-04-30 18:19 55.66584 10.98069 13434 ft 357 kts 101°
2026-04-30 18:19 55.66028 11.02352 13433 ft 358 kts 101°
2026-04-30 18:19 55.65467 11.06652 13427 ft 358 kts 101°
2026-04-30 18:19 55.64908 11.10938 13433 ft 357 kts 101°
2026-04-30 18:20 55.64346 11.15221 13430 ft 358 kts 101°
2026-04-30 18:20 55.63783 11.19508 13431 ft 357 kts 101°
2026-04-30 18:20 55.63218 11.23793 13429 ft 357 kts 101°
2026-04-30 18:20 55.62652 11.28078 13431 ft 357 kts 101°
2026-04-30 18:21 55.62085 11.32352 13433 ft 357 kts 101°
2026-04-30 18:21 55.61516 11.36630 13431 ft 357 kts 101°
2026-04-30 18:21 55.60946 11.40908 13428 ft 357 kts 101°
2026-04-30 18:21 55.60374 11.45186 13432 ft 357 kts 101°
2026-04-30 18:22 55.59801 11.49458 13436 ft 357 kts 101°
2026-04-30 18:22 55.58651 11.57992 13429 ft 357 kts 101°
2026-04-30 18:22 55.58074 11.62255 13429 ft 357 kts 101°
2026-04-30 18:23 55.57495 11.66523 13433 ft 357 kts 101°
2026-04-30 18:23 55.56916 11.70784 13431 ft 357 kts 101°
2026-04-30 18:23 55.56339 11.75006 13232 ft 350 kts 101°
2026-04-30 18:23 55.55768 11.79178 12758 ft 349 kts 101°
2026-04-30 18:24 55.54623 11.87520 11530 ft 350 kts 101°
2026-04-30 18:24 55.54052 11.91654 11317 ft 339 kts 101°
2026-04-30 18:24 55.53502 11.95620 11204 ft 326 kts 101°
2026-04-30 18:25 55.52961 11.99521 10677 ft 327 kts 101°
2026-04-30 18:25 55.51913 12.07053 9661 ft 310 kts 101°
2026-04-30 18:25 55.51403 12.10711 9148 ft 304 kts 101°
2026-04-30 18:26 55.50431 12.17817 8136 ft 292 kts 100°
2026-04-30 18:26 55.49959 12.21272 7646 ft 288 kts 102°
2026-04-30 18:26 55.49343 12.24606 7136 ft 287 kts 116°
2026-04-30 18:27 55.46313 12.29067 6160 ft 287 kts 149°
2026-04-30 18:27 55.44560 12.30728 5657 ft 285 kts 149°
2026-04-30 18:28 55.41207 12.33859 5237 ft 265 kts 150°
2026-04-30 18:28 55.39570 12.35387 4875 ft 267 kts 150°
2026-04-30 18:28 55.36277 12.38484 4170 ft 270 kts 150°
2026-04-30 18:29 55.34618 12.40060 3836 ft 271 kts 150°
2026-04-30 18:29 55.29337 12.41247 3048 ft 261 kts 216°
2026-04-30 18:30 55.27773 12.37089 3041 ft 247 kts 266°
2026-04-30 18:30 55.29471 12.31359 3041 ft 239 kts 336°
2026-04-30 18:31 55.31082 12.30819 3054 ft 238 kts
2026-04-30 18:31 55.34399 12.31274 3044 ft 240 kts
2026-04-30 18:32 55.37529 12.31810 3016 ft 207 kts
2026-04-30 18:32 55.38907 12.32056 3027 ft 192 kts
2026-04-30 18:32 55.41426 12.32516 3047 ft 179 kts
2026-04-30 18:33 55.42669 12.32744 3056 ft 179 kts
2026-04-30 18:33 55.44617 12.34955 3099 ft 184 kts 59°
2026-04-30 18:33 55.45259 12.36921 3063 ft 185 kts 54°
2026-04-30 18:34 55.45936 12.38812 2957 ft 180 kts 53°
2026-04-30 18:34 55.47396 12.42263 2579 ft 170 kts 33°
2026-04-30 18:34 55.48327 12.43605 2559 ft 176 kts 36°
2026-04-30 18:35 55.49255 12.45017 2365 ft 178 kts 37°
2026-04-30 18:35 55.50168 12.46417 2212 ft 170 kts 36°
2026-04-30 18:35 55.51056 12.47778 2101 ft 168 kts 36°
2026-04-30 18:36 55.52855 12.50538 1731 ft 172 kts 37°
2026-04-30 18:36 55.53732 12.51889 1541 ft 161 kts 37°
2026-04-30 18:36 55.55333 12.54356 1102 ft 150 kts 37°
2026-04-30 18:37 55.56107 12.55546 902 ft 148 kts 38°
2026-04-30 18:37 55.56887 12.56749 720 ft 146 kts 38°
2026-04-30 18:37 55.57656 12.57936 523 ft 147 kts 38°
2026-04-30 18:37 55.58415 12.59107 310 ft 146 kts 39°
2026-04-30 18:38 55.59174 12.60282 147 ft 147 kts 39°
2026-04-30 18:38 55.59958 12.61491 21 ft 141 kts 39°
2026-04-30 18:38 55.60383 12.62149 18 ft 48 kts 41°
2026-04-30 18:38 55.60609 12.62495 26 ft 36 kts 41°
2026-04-30 18:39 55.60787 12.62747 24 ft 27 kts 31°
2026-04-30 18:39 55.60925 12.62846 23 ft 17 kts 16°
2026-04-30 18:39 55.60962 12.62860 24 ft 2 kts 11°
2026-04-30 18:39 55.60976 12.62865 22 ft 3 kts 12°
2026-04-30 18:40 55.61006 12.62876 21 ft 0 kts 11°
2026-04-30 18:40 55.61007 12.62877 21 ft 1 kts 11°
2026-04-30 18:40 55.61021 12.62882 21 ft 7 kts 11°
2026-04-30 18:41 55.61104 12.62917 23 ft 14 kts 19°
2026-04-30 18:41 55.61160 12.62972 26 ft 14 kts 38°
2026-04-30 18:41 55.61239 12.63093 29 ft 18 kts 41°
2026-04-30 18:41 55.61350 12.63265 29 ft 24 kts 41°
2026-04-30 18:42 55.61482 12.63469 23 ft 25 kts 41°
2026-04-30 18:42 55.61734 12.63858 26 ft 23 kts 41°
2026-04-30 18:42 55.61854 12.64046 26 ft 24 kts 40°